Location: Rancho Del Sol Observatory
(38.7214°N, 120.6350°W)
Time: 12:58:31
(UTC-08:00)

Courier 1B Rocket - Pass Details

Date: 28 January 2020
Orbit: 920 x 1202 km, 28.2° (Epoch: 27 February)

Event Time Altitude Azimuth Distance (km) Brightness Sun altitude
Rises 10:31:37 0° 237° (WSW) 4,043 8.3 28.1°
Reaches altitude 10° 10:34:50 10° 228° (SW) 3,050 7.9 28.4°
Maximum altitude 10:41:16 31° 169° (S) 1,837 8.6 29.0°
Drops below altitude 10° 10:47:21 10° 110° (ESE) 2,884 8.2 29.5°
Sets 10:50:18 0° 100° (E) 3,792 8.5 29.7°
